N4MRV-1 Weather Reports


time (UTC)temp
F
wind
direction
speed
knots
gust
knots
rain 1hr
in
rain 24hr
in
rain mn
in
humidity
%
barometer
mb
20260506233015 70 225 0.9 2.6 0.00 0.08 0.08 77 1009.7
20260506231516 71 0.0 2.6 0.00 0.08 0.08 76 1009.6
20260506230015 71 68 0.9 3.5 0.00 0.08 0.08 76 1009.6
20260506224515 71 0.0 1.7 0.00 0.08 0.08 77 1009.7
20260506223016 71 0.0 1.7 0.00 0.08 0.08 77 1009.7
20260506221516 71 158 0.9 3.5 0.00 0.08 0.08 76 1009.8
20260506220016 71 158 0.9 2.6 0.00 0.08 0.08 76 1009.6
20260506214516 71 248 0.9 3.5 0.00 0.08 0.08 77 1009.9
20260506213015 71 248 0.9 3.5 0.00 0.08 0.08 77 1009.8
20260506211515 71 270 0.9 2.6 0.00 0.08 0.08 78 1009.9
20260506210035 70 248 0.9 3.5 0.00 0.08 0.08 80 1009.8
20260506204536 69 0.0 1.7 0.00 0.08 0.08 82 1009.9
20260506203035 68 248 0.9 1.7 0.00 0.08 0.08 84 1009.8
20260506201515 68 0.0 1.7 0.00 0.08 0.08 84 1010.0
20260506200015 68 248 0.9 2.6 0.00 0.08 0.08 84 1010.2
20260506194515 68 0.0 0.9 0.00 0.08 0.08 85 1009.6
20260506193015 67 135 0.9 2.6 0.00 0.08 0.08 84 1009.8
20260506191515 67 225 0.9 3.5 0.00 0.08 0.08 85 1010.0
20260506190016 66 315 0.9 2.6 0.00 0.08 0.08 85 1010.4
20260506184517 66 203 0.9 4.3 0.00 0.08 0.08 85 1010.3
20260506183017 66 315 0.9 3.5 0.00 0.08 0.08 84 1010.9
20260506181517 66 338 0.9 5.2 0.00 0.08 0.08 84 1010.8
20260506180017 67 225 0.9 4.3 0.00 0.08 0.08 85 1011.1
20260506174517 66 248 0.9 2.6 0.00 0.08 0.08 88 1011.0
20260506173037 65 0 0.9 2.6 0.00 0.08 0.08 89 1011.0
20260506171517 64 0 0.9 5.2 0.00 0.08 0.08 88 1011.0
20260506170037 64 0 0.9 4.3 0.00 0.08 0.08 89 1011.1
20260506164517 64 0 0.9 2.6 0.00 0.08 0.08 89 1011.4
20260506163017 64 0.0 1.7 0.00 0.08 0.08 91 1011.8
20260506161537 63 0 0.9 3.5 0.00 0.08 0.08 90 1011.4
20260506160017 63 0 0.9 3.5 0.00 0.08 0.08 90 1011.5
20260506154517 63 0 0.9 3.5 0.01 0.08 0.08 90 1011.2
20260506153017 63 0 0.9 3.5 0.03 0.08 0.08 90 1011.9
20260506151517 62 0.0 1.7 0.05 0.08 0.08 89 1012.1
20260506150017 62 0 0.9 5.2 0.06 0.08 0.08 88 1012.5
20260506144516 63 0 0.9 2.6 0.07 0.07 0.07 86 1012.4
20260506143017 63 0.0 1.7 0.05 0.05 0.05 85 1012.7
20260506141537 64 0 0.9 2.6 0.03 0.03 0.03 84 1012.4
20260506140017 64 0 0.9 2.6 0.02 0.02 0.02 81 1012.0
20260506134516 64 0 0.9 5.2 0.00 0.00 0.00 78 1012.3
20260506133016 64 0 0.9 3.5 0.00 0.00 0.00 79 1012.1
20260506131516 64 0 0.9 2.6 0.00 0.00 0.00 79 1012.1
20260506130016 65 0 0.9 7.0 0.00 0.00 0.00 80 1011.9
20260506124556 65 0 0.9 2.6 0.00 0.00 0.00 77 1012.1
20260506123016 65 0 0.9 3.5 0.00 0.00 0.00 75 1012.0
20260506121516 65 0 0.9 5.2 0.00 0.00 0.00 74 1011.9
20260506120016 64 0 0.9 2.6 0.00 0.00 0.00 75 1011.8
20260506114516 64 0 0.9 3.5 0.00 0.00 0.00 75 1011.9
20260506113016 64 0 0.9 5.2 0.00 0.00 0.00 75 1011.9
20260506111517 64 0 0.9 3.5 0.00 0.00 0.00 75 1011.8
20260506110016 63 0 0.9 3.5 0.00 0.00 0.00 74 1011.9
20260506104517 63 0 0.9 3.5 0.00 0.00 0.00 74 1011.8
20260506103016 63 0 0.9 2.6 0.00 0.00 0.00 74 1012.0
20260506101516 63 0 0.9 4.3 0.00 0.00 0.00 74 1011.9
20260506100016 63 0 0.9 3.5 0.00 0.00 0.00 75 1011.8
20260506094516 63 0 0.9 3.5 0.00 0.00 0.00 75 1011.7
20260506093036 64 0 0.9 4.3 0.00 0.00 0.00 75 1011.6
20260506091516 64 0 0.9 2.6 0.00 0.00 0.00 76 1011.7
20260506090036 64 0 0.9 3.5 0.00 0.00 0.00 75 1011.8
20260506084536 64 0 0.9 4.3 0.00 0.00 0.00 75 1011.9
20260506083016 64 0 0.9 5.2 0.00 0.00 0.00 74 1012.1
20260506081536 64 0 0.9 7.0 0.00 0.00 0.00 74 1012.0
20260506073016 65 0 0.9 5.2 0.00 0.00 0.00 72 1012.2
20260506071516 65 0 0.9 5.2 0.00 0.00 0.00 72 1012.3
20260506061536 66 0 0.9 5.2 0.00 0.00 0.00 70 1012.5
20260506044536 69 248 0.9 7.0 0.00 0.00 0.00 65 1013.2
20260506043015 69 180 0.9 4.3 0.00 0.00 0.00 64 1013.2
20260506041515 69 180 0.9 5.2 0.00 0.00 0.00 62 1013.2
20260506040055 70 203 0.9 7.8 0.00 0.00 0.00 60 1013.2
20260506034536 70 225 0.9 3.5 0.00 0.00 0.00 59 1013.0
20260506033016 70 225 0.9 6.1 0.00 0.00 0.00 58 1013.0
20260506031516 71 248 0.9 2.6 0.00 0.00 0.00 58 1013.0
20260506030016 71 225 0.9 5.2 0.00 0.00 0.00 56 1013.0
20260506024516 71 225 0.9 7.0 0.00 0.00 0.00 56 1012.9
20260506023016 71 180 0.9 4.3 0.00 0.00 0.00 55 1013.0
20260506021516 71 225 0.9 2.6 0.00 0.00 0.00 55 1013.0
20260506020016 72 248 0.9 6.1 0.00 0.00 0.00 54 1012.9
20260506014516 72 180 0.9 5.2 0.00 0.00 0.00 53 1012.7
20260506013016 72 203 0.9 6.1 0.00 0.00 0.00 52 1012.7
20260506011536 73 158 0.9 7.0 0.00 0.00 0.00 52 1012.4
20260506010016 73 180 0.9 5.2 0.00 0.00 0.00 51 1012.4
20260506004516 74 225 0.9 2.6 0.00 0.00 0.00 50 1012.2
20260506003016 75 158 0.9 7.0 0.00 0.00 0.00 48 1012.1
20260506001515 75 158 0.9 2.6 0.00 0.00 0.00 48 1011.9
20260506000015 76 68 0.9 1.7 0.00 0.00 0.00 45 1011.8
20260505234516 76 225 0.9 4.3 0.00 0.00 0.00 44 1011.7